IZ0QWM-13 Scandriglia IT current weather conditions

sailwx.info

Wind from 048

Air temperature 18.3° C
Dewpoint 16.7° C

Last reported at 2014-Aug-31 01:45 UTC.
Time now 2014-Aug-31 02:34 UTC

Location: N 42°10' E 012°47'.
View on Google Maps.

See reports from other nearby stations

  
Tides and Currents Weather Stations Pressure Air Temp Water Temp Dewpoint Dewpoint Depression Visibility Wind Speed Wind Dir Waves Ship Positions
date/time (UTC)wind fromknots sea level pressurealtimeterstation pressurevisibilityair tempwater tempwave heightnotes
2014-Aug-31 01:45 048 18.3
2014-Aug-31 01:35 048 17.8
2014-Aug-31 01:25 048 17.2
2014-Aug-31 01:15 048 17.2
2014-Aug-31 01:05 048 17.2
2014-Aug-31 00:55 048 17.2
2014-Aug-31 00:45 048 17.2
2014-Aug-31 00:35 084 17.2
2014-Aug-31 00:25 056 17.8
2014-Aug-31 00:15 056 17.8
2014-Aug-31 00:05 056 17.2
2014-Aug-30 23:55 056 17.2
2014-Aug-30 23:45 056 17.8
2014-Aug-30 23:35 056 17.8
2014-Aug-30 23:25 056 17.8
2014-Aug-30 23:15 056 17.8
2014-Aug-30 23:05 056 18.3
2014-Aug-30 22:55 056 18.3
2014-Aug-30 22:45 056 18.3
2014-Aug-30 22:35 056 18.3
2014-Aug-30 22:25 056 18.3
2014-Aug-30 22:15 056 18.3
2014-Aug-30 22:05 056 18.9
2014-Aug-30 21:55 056 18.9
2014-Aug-30 21:45 056 18.9
2014-Aug-30 21:35 056 19.4
2014-Aug-30 21:25 056 19.4
2014-Aug-30 21:15 058 19.4
2014-Aug-30 21:05 073 19.4
2014-Aug-30 20:55 073 19.4
2014-Aug-30 20:45 073 20.0
2014-Aug-30 20:35 073 20.0
2014-Aug-30 20:25 073 20.0
2014-Aug-30 20:15 073 20.0
2014-Aug-30 20:05 073 20.6
2014-Aug-30 19:55 274 20.6
2014-Aug-30 19:45 274 21.1
2014-Aug-30 19:35 274 21.1
2014-Aug-30 19:25 274 21.7
2014-Aug-30 19:15 274 22.2
2014-Aug-30 19:05 274 22.8
2014-Aug-30 18:55 274 22.8
2014-Aug-30 18:45 274 22.8
2014-Aug-30 18:35 274 23.3
2014-Aug-30 18:25 274 23.3
2014-Aug-30 18:15 166 4 gusting 5 23.9
2014-Aug-30 18:05 174 23.9
2014-Aug-30 17:55 183 6 gusting 6 24.4
2014-Aug-30 17:45 195 6 gusting 6 24.4
2014-Aug-30 17:35 124 25.0
2014-Aug-30 17:25 359 25.0
2014-Aug-30 17:15 174 25.6
2014-Aug-30 17:05 224 0 gusting 10 25.6
2014-Aug-30 16:55 173 4 gusting 7 26.7
2014-Aug-30 16:45 260 26.7
2014-Aug-30 16:35 245 27.2
2014-Aug-30 16:25 210 27.2
2014-Aug-30 16:15 186 27.2
2014-Aug-30 16:05 111 27.2
2014-Aug-30 15:55 128 1 gusting 5 27.8
2014-Aug-30 15:45 152 4 gusting 5 27.8
2014-Aug-30 15:35 190 1 gusting 5 27.8
2014-Aug-30 15:25 218 1 gusting 5 27.8
2014-Aug-30 15:15 150 1 gusting 3 27.8
2014-Aug-30 15:11 195 1 gusting 5 27.8
2014-Aug-30 15:05 287 3 gusting 4 27.8
2014-Aug-30 15:01 181 27.8
2014-Aug-30 14:55 218 27.2
2014-Aug-30 14:51 205 27.2
2014-Aug-30 14:45 179 2 gusting 2 27.2
2014-Aug-30 14:40 158 2 gusting 6 27.8
2014-Aug-30 14:35 163 27.8
2014-Aug-30 14:30 184 8 gusting 16 27.8
2014-Aug-30 14:25 032 27.8
2014-Aug-30 14:20 309 27.2
2014-Aug-30 14:15 226 27.2
2014-Aug-30 14:10 276 2 gusting 3 27.2
2014-Aug-30 14:05 021 27.8
2014-Aug-30 14:00 195 28.3
2014-Aug-30 13:55 195 28.3
2014-Aug-30 13:50 207 2 gusting 4 27.8
2014-Aug-30 13:45 308 2 gusting 2 27.8
2014-Aug-30 13:40 307 27.8
2014-Aug-30 13:35 340 4 gusting 4 28.3
2014-Aug-30 13:30 267 2 gusting 6 28.3
2014-Aug-30 13:25 329 4 gusting 5 28.3
2014-Aug-30 13:20 260 28.3
2014-Aug-30 13:15 174 2 gusting 5 28.3
2014-Aug-30 13:10 188 2 gusting 9 28.9
2014-Aug-30 13:05 269 28.9
2014-Aug-30 12:55 128 28.3
2014-Aug-30 12:50 314 3 gusting 7 28.3
2014-Aug-30 12:45 166 28.9
2014-Aug-30 12:40 218 2 gusting 5 28.3
2014-Aug-30 12:35 169 2 gusting 3 27.8
2014-Aug-30 12:30 264 3 gusting 10 27.8
2014-Aug-30 12:25 172 27.8
2014-Aug-30 12:20 267 27.8
2014-Aug-30 12:15 194 27.8
2014-Aug-30 12:10 194 27.2
2014-Aug-30 12:05 150 27.2
2014-Aug-30 12:00 199 4 gusting 7 27.2
2014-Aug-30 11:55 278 27.2
2014-Aug-30 11:50 186 27.2
2014-Aug-30 11:45 153 27.2
2014-Aug-30 11:40 222 27.2
2014-Aug-30 11:35 222 27.2
2014-Aug-30 11:30 222 1 gusting 5 26.7
2014-Aug-30 11:25 252 26.7
2014-Aug-30 11:20 219 26.7
2014-Aug-30 11:15 146 2 gusting 6 26.7
2014-Aug-30 11:10 008 26.1
2014-Aug-30 11:05 287 3 gusting 6 26.1
2014-Aug-30 11:00 332 4 gusting 5 26.1
2014-Aug-30 10:55 300 26.1
2014-Aug-30 10:50 149 26.1
2014-Aug-30 10:45 003 26.1
2014-Aug-30 10:40 186 26.1
2014-Aug-30 10:35 186 26.1
2014-Aug-30 10:30 229 26.1
2014-Aug-30 10:25 229 26.1
2014-Aug-30 10:20 214 25.6
2014-Aug-30 10:15 214 25.6
2014-Aug-30 10:10 214 25.6
2014-Aug-30 10:05 359 2 gusting 4 25.6
2014-Aug-30 10:00 287 25.6
2014-Aug-30 09:55 284 25.6
2014-Aug-30 09:50 284 25.0
2014-Aug-30 09:45 284 25.0
2014-Aug-30 09:40 288 2 gusting 2 25.0
2014-Aug-30 09:35 264 24.4
2014-Aug-30 09:30 295 3 gusting 5 24.4
2014-Aug-30 09:25 248 1 gusting 4 24.4
2014-Aug-30 09:20 262 24.4
2014-Aug-30 09:15 242 23.9
2014-Aug-30 09:10 242 2 gusting 5 23.9
2014-Aug-30 09:05 291 3 gusting 3 23.9
2014-Aug-30 08:59 298 23.9
2014-Aug-30 08:55 262 23.9
2014-Aug-30 08:49 262 23.9
2014-Aug-30 08:45 262 23.9
2014-Aug-30 08:35 321 23.9
2014-Aug-30 08:29 321 2 gusting 2 23.3
2014-Aug-30 08:25 311 23.3
2014-Aug-30 08:19 288 1 gusting 1 23.3
2014-Aug-30 08:15 270 23.3
2014-Aug-30 08:09 270 22.8
2014-Aug-30 08:05 270 1 gusting 1 22.8
2014-Aug-30 07:59 264 2 gusting 2 22.2
2014-Aug-30 07:55 264 1 gusting 1 22.8
2014-Aug-30 07:49 052 22.2
2014-Aug-30 07:45 052 22.2
2014-Aug-30 07:39 052 22.2
2014-Aug-30 07:35 052 22.2
2014-Aug-30 07:29 052 22.2
2014-Aug-30 07:25 052 22.2
2014-Aug-30 07:19 052 21.7
2014-Aug-30 07:15 052 21.7
2014-Aug-30 07:05 052 21.1
2014-Aug-30 06:59 052 20.6
2014-Aug-30 06:55 052 20.0
2014-Aug-30 06:49 052 20.0
2014-Aug-30 06:45 052 20.0
2014-Aug-30 06:35 052 19.4
2014-Aug-30 06:29 052 18.9
2014-Aug-30 06:25 052 18.3
2014-Aug-30 06:19 052 18.3
2014-Aug-30 06:15 052 18.3
2014-Aug-30 06:09 052 17.8
2014-Aug-30 06:05 052 17.8
2014-Aug-30 05:59 052 17.8
2014-Aug-30 05:55 052 17.8
2014-Aug-30 05:49 052 17.2
2014-Aug-30 05:45 052 17.2
2014-Aug-30 05:39 052 17.2
2014-Aug-30 05:35 052 17.2
2014-Aug-30 05:29 052 17.2
2014-Aug-30 05:25 087 16.7
2014-Aug-30 05:19 090 17.2
2014-Aug-30 05:15 068 17.2
2014-Aug-30 05:09 068 17.2
2014-Aug-30 05:05 068 17.2
2014-Aug-30 04:59 068 17.2
2014-Aug-30 04:55 068 17.2
2014-Aug-30 04:49 068 17.2
2014-Aug-30 04:45 068 16.7
2014-Aug-30 04:39 068 16.7
2014-Aug-30 04:35 068 16.7
2014-Aug-30 04:29 079 16.7
2014-Aug-30 04:25 079 16.7
2014-Aug-30 04:19 079 16.7
2014-Aug-30 04:15 079 16.7
2014-Aug-30 04:09 058 16.7
2014-Aug-30 04:05 083 2 gusting 2 16.7
2014-Aug-30 03:59 044 16.7
2014-Aug-30 03:55 044 16.7
2014-Aug-30 03:49 044 16.7
2014-Aug-30 03:45 044 16.7
2014-Aug-30 03:39 044 16.7
2014-Aug-30 03:35 044 16.7
2014-Aug-30 03:29 041 16.7
2014-Aug-30 03:25 041 16.7
2014-Aug-30 03:19 041 16.7
2014-Aug-30 03:15 038 16.7
2014-Aug-30 03:05 077 3 gusting 3 17.2
2014-Aug-30 02:59 048 2 gusting 3 17.2
2014-Aug-30 02:55 048 17.2
2014-Aug-30 02:49 048 17.2
2014-Aug-30 02:45 048 17.2
2014-Aug-30 02:35 048 17.2
2014-Aug-30 02:29 048 17.2
2014-Aug-30 02:25 060 17.8
2014-Aug-30 02:19 060 17.8
2014-Aug-30 02:15 060 17.8
2014-Aug-30 02:09 060 17.8
2014-Aug-30 02:05 060 17.8
2014-Aug-30 01:59 060 17.8
2014-Aug-30 01:55 060 17.8
2014-Aug-30 01:49 060 17.8
2014-Aug-30 01:45 076 17.8
2014-Aug-30 01:38 076 17.2
2014-Aug-30 01:35 076 17.2
2014-Aug-30 01:25 135 0 gusting 2 17.2
2014-Aug-30 01:18 076 17.2
2014-Aug-30 01:15 052 17.2
2014-Aug-30 01:08 059 2 gusting 4 17.8
2014-Aug-30 01:05 097 2 gusting 3 17.8
2014-Aug-30 00:58 055 17.8
2014-Aug-30 00:55 055 17.8
2014-Aug-30 00:45 055 17.8
2014-Aug-30 00:38 055 17.8
2014-Aug-30 00:35 055 17.8
2014-Aug-30 00:25 055 17.8
2014-Aug-30 00:18 097 17.8
2014-Aug-30 00:15 097 17.8
2014-Aug-30 00:08 072 17.8
2014-Aug-30 00:05 072 17.8
2014-Aug-29 23:58 068 17.8
2014-Aug-29 23:55 068 17.8
2014-Aug-29 23:48 053 17.8
2014-Aug-29 23:45 053 17.8
2014-Aug-29 23:38 035 17.8
2014-Aug-29 23:35 035 18.3
2014-Aug-29 23:28 035 18.3
2014-Aug-29 23:25 035 18.3
2014-Aug-29 23:18 035 18.3
2014-Aug-29 23:15 035 18.3
2014-Aug-29 23:08 035 18.3
2014-Aug-29 23:05 035 18.3
2014-Aug-29 22:58 035 18.3
2014-Aug-29 22:55 035 18.3
2014-Aug-29 22:48 035 18.3
2014-Aug-29 22:45 035 18.3
2014-Aug-29 22:38 035 18.3
2014-Aug-29 22:35 035 18.3
2014-Aug-29 22:28 035 18.9
2014-Aug-29 22:25 035 18.9
2014-Aug-29 22:18 035 18.9
2014-Aug-29 22:15 035 18.9
2014-Aug-29 22:08 035 19.4
2014-Aug-29 22:05 035 19.4
2014-Aug-29 21:58 035 19.4
2014-Aug-29 21:55 035 19.4
2014-Aug-29 21:48 035 19.4
2014-Aug-29 21:45 035 19.4
2014-Aug-29 21:38 035 19.4
2014-Aug-29 21:35 035 19.4
2014-Aug-29 21:28 035 1 gusting 3 19.4
2014-Aug-29 21:25 076 19.4
2014-Aug-29 21:18 076 19.4
2014-Aug-29 21:15 076 19.4
2014-Aug-29 21:08 076 19.4
2014-Aug-29 21:05 076 20.0
2014-Aug-29 20:58 076 20.0
2014-Aug-29 20:55 076 19.4
2014-Aug-29 20:48 076 19.4
2014-Aug-29 20:45 076 19.4
2014-Aug-29 20:38 076 19.4
2014-Aug-29 20:35 076 19.4
2014-Aug-29 20:28 076 20.0
2014-Aug-29 20:25 076 20.0
2014-Aug-29 20:18 076 20.6
2014-Aug-29 20:15 076 20.6
2014-Aug-29 20:07 076 20.6
2014-Aug-29 20:05 076 20.6
2014-Aug-29 19:57 076 21.1
2014-Aug-29 19:55 076 21.1
2014-Aug-29 19:47 359 21.1
2014-Aug-29 19:45 359 21.1
2014-Aug-29 19:37 359 21.7
2014-Aug-29 19:35 359 21.7
2014-Aug-29 19:27 359 22.2
2014-Aug-29 19:25 359 22.2
2014-Aug-29 19:17 359 22.2
2014-Aug-29 19:15 359 22.8
2014-Aug-29 19:07 359 22.8
2014-Aug-29 19:05 359 22.8
2014-Aug-29 18:57 359 22.8
2014-Aug-29 18:55 359 22.8
2014-Aug-29 18:47 359 23.3
2014-Aug-29 18:45 359 23.3
2014-Aug-29 18:37 359 23.3
2014-Aug-29 18:35 359 23.3
2014-Aug-29 18:25 359 23.9
2014-Aug-29 18:17 359 23.9
2014-Aug-29 18:15 359 23.9
2014-Aug-29 18:07 359 23.9
2014-Aug-29 18:05 359 23.9
2014-Aug-29 17:57 359 24.4
2014-Aug-29 17:55 359 24.4
2014-Aug-29 17:47 359 22.8
2014-Aug-29 17:45 359 22.8
2014-Aug-29 17:37 359 4 gusting 9 23.3
2014-Aug-29 17:35 180 6 gusting 7 23.3
2014-Aug-29 17:27 359 23.3
2014-Aug-29 17:25 359 1 gusting 7 23.3
2014-Aug-29 17:17 180 23.9
2014-Aug-29 17:15 097 2 gusting 2 23.9
2014-Aug-29 17:07 194 6 gusting 11 24.4
2014-Aug-29 17:05 169 7 gusting 9 24.4
2014-Aug-29 16:57 359 0 gusting 9 24.4
2014-Aug-29 16:54 359 24.4
2014-Aug-29 16:47 186 5 gusting 9 25.0
2014-Aug-29 16:45 167 3 gusting 8 25.0
2014-Aug-29 16:37 173 3 gusting 8 25.0
2014-Aug-29 16:34 153 25.0
2014-Aug-29 16:27 219 25.6
2014-Aug-29 16:24 153 25.6
2014-Aug-29 16:17 181 5 gusting 8 26.1
2014-Aug-29 16:14 183 3 gusting 5 25.6
2014-Aug-29 16:04 173 3 gusting 4 26.7
2014-Aug-29 15:57 018 27.2
2014-Aug-29 15:54 266 26.7
2014-Aug-29 15:44 294 27.2
2014-Aug-29 15:37 028 27.2
2014-Aug-29 15:34 028 27.2
2014-Aug-29 15:27 028 27.2
2014-Aug-29 15:24 259 26.7
2014-Aug-29 15:17 273 27.2
2014-Aug-29 15:14 298 27.2
2014-Aug-29 15:04 243 27.2
2014-Aug-29 14:57 204 27.2
2014-Aug-29 14:54 204 27.2
2014-Aug-29 14:47 180 5 gusting 6 27.8
2014-Aug-29 14:44 169 27.8
2014-Aug-29 14:37 169 27.2
2014-Aug-29 14:34 195 27.2
2014-Aug-29 14:26 322 26.7
2014-Aug-29 14:24 322 26.7
2014-Aug-29 14:16 359 26.7
2014-Aug-29 14:14 359 26.7
2014-Aug-29 14:06 359 27.2
2014-Aug-29 14:04 359 27.2
2014-Aug-29 13:56 359 26.7
2014-Aug-29 13:54 359 26.7
2014-Aug-29 13:46 312 26.7
2014-Aug-29 13:44 312 26.7
2014-Aug-29 13:36 359 3 gusting 3 26.7
2014-Aug-29 13:34 309 26.7
2014-Aug-29 13:26 309 26.1
2014-Aug-29 13:24 328 26.1
2014-Aug-29 13:14 359 26.1
2014-Aug-29 13:06 359 26.7
2014-Aug-29 12:56 285 26.7
2014-Aug-29 12:46 305 26.7
2014-Aug-29 12:36 214 27.2
2014-Aug-29 12:26 276 26.7
2014-Aug-29 12:16 277 26.7
2014-Aug-29 12:06 250 26.7
2014-Aug-29 11:56 175 4 gusting 6 26.7
2014-Aug-29 11:46 352 4 gusting 5 26.1
2014-Aug-29 11:36 284 26.1
2014-Aug-29 11:26 319 2 gusting 6 26.1
2014-Aug-29 11:16 231 25.6
2014-Aug-29 11:06 030 25.6
2014-Aug-29 10:55 020 2 gusting 5 25.6
2014-Aug-29 10:45 275 4 gusting 5 25.0
2014-Aug-29 10:35 312 4 gusting 5 25.0
2014-Aug-29 10:25 278 25.0
2014-Aug-29 10:15 278 25.0
2014-Aug-29 10:05 283 25.0
2014-Aug-29 09:55 180 25.0
2014-Aug-29 09:45 224 2 gusting 4 25.0
2014-Aug-29 09:35 311 3 gusting 3 24.4
2014-Aug-29 09:25 240 24.4
2014-Aug-29 09:15 148 1 gusting 2 24.4
2014-Aug-29 09:05 300 24.4
2014-Aug-29 08:55 312 23.9
2014-Aug-29 08:45 307 23.9
2014-Aug-29 08:35 307 23.9
2014-Aug-29 08:25 307 23.3
2014-Aug-29 08:15 307 23.3
2014-Aug-29 08:05 307 23.3
2014-Aug-29 07:55 091 23.3
2014-Aug-29 07:45 091 23.3
2014-Aug-29 07:35 091 22.8
2014-Aug-29 07:25 091 22.2
2014-Aug-29 07:15 091 21.7
2014-Aug-29 07:05 091 21.1
2014-Aug-29 06:55 091 20.6
2014-Aug-29 06:45 091 20.0
2014-Aug-29 06:35 091 19.4
2014-Aug-29 06:25 091 18.9
2014-Aug-29 06:15 091 18.3
2014-Aug-29 06:05 091 17.8
2014-Aug-29 05:55 091 17.8
2014-Aug-29 05:45 091 17.8
2014-Aug-29 05:35 091 17.8
2014-Aug-29 05:25 091 17.8
2014-Aug-29 05:14 091 17.8
2014-Aug-29 05:04 091 17.8
2014-Aug-29 04:54 091 17.8
2014-Aug-29 04:44 091 17.8
2014-Aug-29 04:34 091 17.8
2014-Aug-29 04:24 091 17.2
2014-Aug-29 04:14 091 17.2
2014-Aug-29 04:04 091 17.2
2014-Aug-29 03:54 091 17.2
2014-Aug-29 03:44 091 17.2
2014-Aug-29 03:34 091 17.8
2014-Aug-29 03:24 091 17.8
2014-Aug-29 03:14 091 17.8
2014-Aug-29 03:04 091 17.8
2014-Aug-29 02:54 035 17.8
2014-Aug-29 02:44 035 17.8
2014-Aug-29 02:34 035 18.3
2014-Aug-29 02:24 035 18.3
2014-Aug-29 02:14 035 18.9
2014-Aug-29 02:04 035 18.9